User: anonymous   Login
Location: Unspecified
(0.0000°N, 0.0000°E)
Time: 18:25:19
(UTC+02:00)
Language:

Cosmos 1515 Rocket - Orbit

View from above orbital plane
View from above orbital plane
View from above satellite
View from above satellite

Ground track
Ground track

The orbit data is extracted from the following two-line orbital elements,

1 14552U 83122B   17263.19243810  .00000097  00000-0  89212-5 0  9993
2 14552  82.5272 347.6885 0016645 201.2310 158.8217 14.83413144823263
Epoch (UTC): 20 September 2017 04:37:06
Eccentricity: 0.0016645
inclination: 82.5272°
perigee height: 607 km
apogee height: 630 km
right ascension of ascending node: 347.6885°
argument of perigee: 201.2310°
revolutions per day: 14.83413144
mean anomaly at epoch: 158.8217°
orbit number at epoch: 82326

The dashed part of the orbit path shows where the satellite is in the earth's shadow,  

DLR